This demonstration page uses our WeatherBlox Daily Observations layout. Learn more.

Left ArrowRight Arrow

Hourly Observations for April 10, 2018

Temp ( °F °C ) Dew Point ( °F °C ) Humidity (%) Winds ( mph kmh ) Pressure ( in mb ) Visibility ( mi km ) Precip ( " mm )
12:56 am 00:56 Clear 26 -3.3 22 -5.6 84 84 S 5 7 30.37 1028 10 16 0.00 0.00
1:56 am 01:56 Clear 27 -2.8 23 -5 85 85 SSW 9 15 30.36 1028 10 16 0.00 0.00
2:56 am 02:56 Clear 27 -2.8 23 -5 85 85 SSW 12 19 30.35 1028 10 16 0.00 0.00
3:56 am 03:56 Cloudy 28 -2.2 23 -5 81 81 SW 10 17 30.33 1027 10 16 0.00 0.00
4:56 am 04:56 Mostly Cloudy 28 -2.2 24 -4.4 85 85 SW 9 15 30.31 1026 10 16 0.00 0.00
5:56 am 05:56 Cloudy 29 -1.7 25 -3.9 85 85 SSW 10 17 30.29 1026 10 16 0.00 0.00
6:56 am 06:56 Mostly Cloudy 30 -1.1 26 -3.3 85 85 SW 8 13 30.28 1025 10 16 0.00 0.00
7:56 am 07:56 Cloudy 33 0.6 27 -2.8 78 78 SSW 10 17 30.26 1025 10 16 0.00 0.00
8:56 am 08:56 Mostly Cloudy 38 3.3 30 -1.1 73 73 S 14 22 30.24 1024 10 16 0.00 0.00
9:56 am 09:56 Mostly Cloudy 43 6.1 34 1.1 71 71 SW 10 17 30.22 1023 10 16 0.00 0.00
10:56 am 10:56 Sunny 49 9.4 36 2.2 61 61 WSW 10 17 30.19 1023 10 16 0.00 0.00
11:56 am 11:56 Sunny 54 12.2 36 2.2 51 51 WSW 7 11 30.17 1022 10 16 0.00 0.00
12:56 pm 12:56 Sunny 58 14.4 37 2.8 46 46 VRB 6 9 30.15 1021 10 16 0.00 0.00
1:56 pm 13:56 Sunny 62 16.7 37 2.8 40 40 VRB 5 7 30.10 1019 10 16 0.00 0.00
2:56 pm 14:56 Sunny 66 18.9 32 0 28 28 WNW 8 13 30.07 1018 10 16 0.00 0.00
3:56 pm 15:56 Mostly Sunny 68 20 27 -2.8 21 21 VRB 5 7 30.04 1017 10 16 0.00 0.00
4:56 pm 16:56 Sunny 69 20.6 26 -3.3 20 20 WNW 9 15 30.01 1016 10 16 0.00 0.00
5:56 pm 17:56 Sunny 69 20.6 27 -2.8 21 21 WNW 10 17 29.99 1016 10 16 0.00 0.00
6:56 pm 18:56 Sunny 68 20 28 -2.2 22 22 NW 9 15 29.98 1015 10 16 0.00 0.00
7:56 pm 19:56 Sunny 63 17.2 29 -1.7 28 28 NW 3 6 29.99 1016 10 16 0.00 0.00
8:56 pm 20:56 Clear 55 12.8 29 -1.7 37 37 SE 3 6 29.98 1015 10 16 0.00 0.00
9:56 pm 21:56 Clear 51 10.6 29 -1.7 43 43 SSE 5 7 29.98 1015 10 16 0.00 0.00

Powered by AerisWeather